Location: Amboy Crater
(34.5568°N, 115.7811°W)
Time: 00:17:23
(UTC-07:00)

Hubble Space Telescope - Pass Details

Date: 12 August 2024
Orbit: 505 x 509 km, 28.5° (Epoch: 15 September)

Event Time Altitude Azimuth Distance (km) Brightness Sun altitude
Exits shadow 04:16:10 14° 155° (SSE) 1,491 2.9 -20.2°
Drops below altitude 10° 04:18:00 10° 128° (SE) 1,716 3.5 -19.9°
Sets 04:21:08 0° 102° (ESE) 2,605 4.9 -19.4°
